Regional Weather Roundup
Issued by NWS

Home | Current Version | Previous Version | Text Only | Print | Product List | Glossary Off
Versions: 1 2 3 4 5 6 7 8 9 10 11 12 13 14 15 16 17 18 19 20 21 22 23 24 25 26 27 28 29 30 31 32 33 34 35 36 37 38 39 40 41 42 43 44 45 46 47 48 49 50

000
ASUS43 KOAX 012010
RWRNE

WEATHER ROUNDUP FOR NEBRASKA
NATIONAL WEATHER SERVICE OMAHA NE
300 PM CDT SAT AUG 01 2015

NOTES: SATELLITE DATA IS BEING USED TO AUGMENT CLOUD COVER ABOVE
       12000 FEET.
       "FAIR" INDICATES FEW OR NO CLOUDS BELOW 12,000 FEET WITH NO
       SIGNIFICANT WEATHER AND/OR OBSTRUCTIONS TO VISIBILITY.

  * THESE STATIONS DO NOT REPORT WEATHER SUCH AS RAIN...SNOW OR FOG.

NEZ001>004-019>022-054>056-012100-
NEBRASKA PANHANDLE

CITY           SKY/WX    TMP DP  RH WIND       PRES   REMARKS
SCOTTSBLUFF    SUNNY     93  55  27 VRB5      30.01F HX  91
ALLIANCE       MOSUNNY   91  62  37 SE24G31   30.03F HX  91
CHADRON        SUNNY     92  63  38 E9G17     29.97F HX  93
KIMBALL        SUNNY     91  47  22 S6        30.08F
SIDNEY         SUNNY     94  52  24 S10G20    30.06F HX  91
$$

NEZ057>060-069>072-079>082-012100-
SOUTHWEST NEBRASKA

CITY           SKY/WX    TMP DP  RH WIND       PRES   REMARKS
NORTH PLATTE   SUNNY     85  60  42 E17       30.08F
IMPERIAL       MOSUNNY   93  58  30 S21       30.03F HX  92
LEXINGTON      SUNNY     86  60  41 SE10G17   30.08F
MCCOOK         SUNNY     92  60  34 SE7       30.04F HX  91
OGALLALA       SUNNY     87  65  47 SE14G20   30.06F
$$

NEZ005>010-023>029-035>040-094-012100-
NORTH CENTRAL NEBRASKA

CITY           SKY/WX    TMP DP  RH WIND       PRES   REMARKS
VALENTINE      MOSUNNY   79  58  48 S31G39    29.98F
AINSWORTH      MOSUNNY   77  60  55 S23G29    29.98F
BROKEN BOW     MOSUNNY   81  56  42 NE14G21   30.10F
O`NEILL        CLOUDY    78  59  51 S15G22    29.98F
ORD            CLOUDY    74  58  57 S7        30.06F
THEDFORD       PTSUNNY   76  56  50 E15       30.11F
$$

NEZ041-046>049-061>064-073>077-083>087-012100-
SOUTH CENTRAL NEBRASKA

CITY           SKY/WX    TMP DP  RH WIND       PRES   REMARKS
GRAND ISLAND   MOSUNNY   79  59  50 N16       30.08F
AURORA         MOSUNNY   79  63  59 N12G24    30.07F
HASTINGS       SUNNY     85  62  46 W6        30.06F
HEBRON         SUNNY     88  63  42 S7        30.03S
HOLDREGE       SUNNY     85  61  44 NE9       30.07F
KEARNEY *      SUNNY     84  63  48 E6        30.07F
YORK           PTSUNNY   79  66  65 N12G17    30.06F
$$

NEZ011>018-030>034-042>045-012100-
NORTHEAST NEBRASKA

CITY           SKY/WX    TMP DP  RH WIND       PRES   REMARKS
NORFOLK        LGT RAIN  74  61  63 SW9       30.00F
ALBION         CLOUDY    72  56  56 N9        30.04F
BLAIR          CLOUDY    78  68  71 CALM      30.02F
COLUMBUS *     CLOUDY    79  61  53 W6        30.03F
FREMONT        CLOUDY    78  69  71 SW5       30.03S
TEKAMAH        CLOUDY    82  70  66 SW6       29.99S
WAYNE          CLOUDY    77  63  61 CALM      29.98F
$$

NEZ050>053-065>068-078-088>093-012100-
SOUTHEAST NEBRASKA

CITY           SKY/WX    TMP DP  RH WIND       PRES   REMARKS
LINCOLN        PTSUNNY   89  66  46 NW15      30.04R HX  91
OMAHA EPPLEY   CLOUDY    83  67  58 S6        29.99F
BEATRICE       PTSUNNY   85  64  48 S10       30.00F
FALLS CITY     PTSUNNY   85  73  67 SW3       29.99F HX  91
NEBRASKA CITY  CLOUDY    82  66  59 CALM      30.01S
PLATTSMOUTH    CLOUDY    78  68  70 CALM      30.02S
$$

NEZ044-045-051>053-067-012100-
OMAHA AREA

CITY           SKY/WX    TMP DP  RH WIND       PRES   REMARKS
OMAHA EPPLEY   CLOUDY    83  67  58 S6        29.99F
BLAIR          CLOUDY    78  68  71 CALM      30.02F
FREMONT        CLOUDY    78  69  71 SW5       30.03S
MILLARD        CLOUDY    80  69  68 S3        30.01S
PLATTSMOUTH    CLOUDY    78  68  70 CALM      30.02S
WAHOO          FAIR      80  69  67 SW3       30.02F
$$


USA.gov is the U.S. government's official web portal to all federal, state and local government web resources and services.